Location: Aragnouet
(42.7874°N, 0.2165°E)
Time: 08:58:50
(UTC+00:00)

Daily predictions for brighter satellites

Satellite Brightness Start Highest point End
(mag) Time Altitude Azimuth Time Altitude Azimuth Time Altitude Azimuth
Cosmos 1726 Rocket 4.2 18:56:43 10° SSE 19:00:42 34° E 19:04:44 10° NNE
Meteor 1-21 Rocket 4.2 18:56:12 10° N 19:01:46 87° E 19:07:19 10° S
STARLINK-1228 4.4 19:00:01 10° NNW 19:02:29 23° NNE 19:04:56 10° E
Cosmos 1461 4.0 18:59:07 10° NNW 19:03:17 34° NE 19:07:32 10° ESE
SL-4 R/B 2.8 19:01:47 10° W 19:05:02 40° NNW 19:08:17 10° NE
Cosmos 1726 2.1 19:01:36 10° S 19:05:19 77° E 19:09:03 10° N
IRIDIUM 103 4.4 19:00:10 10° N 19:05:22 64° E 19:10:31 10° SSE
Cosmos 921 Rocket 4.4 19:02:59 10° NNE 19:06:10 21° ENE 19:09:21 10° ESE
Cosmos 1703 3.8 19:03:18 10° N 19:07:02 39° ENE 19:10:46 10° SSE
Meteor 2-10 4.2 19:01:39 10° S 19:07:08 79° E 19:12:48 10° NNE
CSL-04 Rocket 4.3 19:03:03 10° S 19:08:16 60° WSW 19:13:30 10° NNW
Cosmos 407 Rocket 3.7 19:03:36 10° S 19:08:31 48° ESE 19:13:25 10° NNE
Cosmos 1908 3.7 19:05:31 10° SSE 19:09:07 39° E 19:12:46 10° NNE
Cosmos 1437 2.5 19:06:14 10° N 19:09:16 80° ENE 19:12:16 10° SSE
Cosmos 1340 Rocket 3.8 19:06:10 10° SSE 19:09:35 27° E 19:13:01 10° NNE
Cosmos 2184 Rocket 4.0 19:03:27 10° N 19:09:42 65° E 19:15:50 10° SSE
Cosmos 1825 Rocket 3.6 19:06:06 10° N 19:10:27 60° E 19:14:44 10° SSE
ADEOS Rocket 3.8 19:04:30 10° N 19:10:35 56° WNW 19:16:07 10° SW
FREGAT/IRIS 3.1 19:08:08 10° SE 19:10:36 32° ENE 19:13:05 10° N
Cosmos 2228 3.1 19:07:21 10° S 19:11:32 53° E 19:15:47 10° NNE
Cosmos 1656 Rocket 3.7 19:07:21 10° NNW 19:13:02 79° ENE 19:18:35 10° SSE
Cosmos 1328 4.2 19:09:54 10° N 19:13:46 45° ENE 19:17:36 10° SSE
ATLAS 5 CENTAUR R/B 4.3 19:13:43 10° SSE 19:14:46 10° SE 19:15:57 10° SE
Cosmos 1943 3.9 19:09:46 10° SW 19:15:21 62° WNW 19:21:01 10° NNE
MOS 1 4.4 19:12:22 10° SSE 19:17:52 57° ENE 19:23:25 10° N
H-2A R/B 4.3 19:10:51 10° W 19:19:54 18° SW 19:23:34 10° S
Resurs 01 Rocket 3.3 19:17:44 11° ESE 19:20:25 17° ENE 19:23:14 10° NNE
STARLINK-52 2.8 19:18:02 10° SW 19:21:13 80° SE 19:24:26 10° NE
IRIDIUM 106 4.4 19:18:25 10° N 19:23:39 88° W 19:28:52 10° S
Nadezhda 1 Rocket 4.1 19:17:31 10° S 19:23:46 60° E 19:30:00 10° NNE
BREEZE M DEB (TANK) 3.1 19:21:43 10° SSW 19:24:10 30° SE 19:29:10 10° ENE
Cosmos 1758 Rocket 3.7 19:20:54 10° N 19:25:15 77° W 19:29:32 10° S
CZ-2C R/B 3.6 19:21:17 10° NE 19:25:28 24° E 19:29:40 10° SSE
SL-24 R/B - RUBIN 2 4.2 19:22:13 10° SSW 19:27:43 84° SE 19:33:59 10° NE
SPOT 3 Rocket 4.1 19:23:07 10° SE 19:27:54 39° ENE 19:32:42 10° N
ARGOS 3.2 19:23:55 10° SSE 19:29:15 68° ENE 19:34:36 10° N
FALCON 9 DEB 3.2 19:26:03 10° SW 19:29:32 86° NW 19:33:03 10° NE
Cosmos 1606 Rocket 3.6 19:26:47 10° S 19:31:12 86° W 19:35:42 10° N
Cosmos 2154 Rocket 4.1 19:26:24 10° N 19:32:44 63° E 19:38:57 10° SSE
GEOS 3 Rocket 3.7 19:27:54 10° SE 19:33:02 84° SW 19:38:18 10° NW
Cosmos 1953 Rocket 3.5 19:29:03 10° N 19:33:32 73° E 19:38:01 10° SSE
Cosmos 1954 Rocket 4.4 19:28:56 10° S 19:33:46 39° ESE 19:38:35 10° NE
USA 186 1.7 19:31:30 10° SSE 19:34:49 85° ENE 19:37:58 10° N
NOSS 3-4 (A) 3.9 19:27:56 10° NW 19:35:01 81° NE 19:42:33 11° SE
NOSS 3-4 (C) 3.9 19:28:02 10° NW 19:35:07 81° NE 19:42:36 11° SE
CZ-4 R/B 4.4 19:35:27 10° WSW 19:37:25 14° W 19:39:23 10° WNW
Cosmos 1953 4.4 19:34:08 10° SW 19:37:40 31° WNW 19:41:16 10° NNW
STARLINK-67 2.4 19:35:39 10° NW 19:38:11 64° NE 19:39:24 26° ESE
Meteor 1-11 4.2 19:37:59 10° N 19:43:46 75° E 19:49:24 10° SSE
BREEZE-M DEB (TANK) 4.4 19:38:49 10° SSW 19:44:32 29° SSE 19:45:55 22° ESE
STARLINK-1234 3.1 19:51:38 10° NW 19:54:43 55° NNE 19:55:47 34° E
STARLINK-1209 3.0 19:52:06 10° NW 19:55:11 59° NNE 19:56:15 35° E
STARLINK-1233 3.6 19:52:33 10° NW 19:55:35 42° NNE 19:56:38 30° E
STARLINK-1212 3.6 19:53:01 10° NW 19:56:02 42° NNE 19:57:04 30° ENE
STARLINK-1105 3.6 19:53:27 10° NW 19:56:29 43° NNE 19:57:31 31° E
STARLINK-1206 3.5 19:53:56 10° NW 19:56:56 43° NNE 19:57:55 31° ENE
STARLINK-1247 3.5 19:54:23 10° NW 19:57:24 43° NNE 19:58:22 32° ENE
STARLINK-1227 3.5 19:54:47 10° NW 19:57:49 44° NNE 19:58:47 32° ENE
STARLINK-1218 3.5 19:55:17 10° NW 19:58:18 44° NNE 19:59:13 33° ENE
SeaSat 1 4.4 19:54:22 10° N 19:58:45 32° NW 20:03:04 10° WSW
STARLINK-1226 3.5 19:55:43 10° NW 19:58:45 44° NNE 19:59:40 33° ENE
STARLINK-1254 3.5 19:56:08 10° NW 19:59:12 45° NNE 20:00:06 33° ENE
STARLINK-1215 3.5 19:56:38 10° NW 19:59:39 45° NNE 20:00:32 34° ENE
STARLINK-1231 3.4 19:57:05 10° NW 20:00:07 45° NNE 20:00:58 35° ENE
STARLINK-1232 3.4 19:58:00 10° NW 20:01:01 46° NNE 20:01:50 36° ENE
Abrixas rocket 2.2 19:58:28 10° WNW 20:01:23 56° NNE 20:02:07 41° ENE
STARLINK-1217 3.4 19:58:26 10° NW 20:01:28 47° NNE 20:02:16 36° ENE
STARLINK-1208 3.4 19:58:51 10° NW 20:01:54 47° NNE 20:02:43 37° ENE
USA 234 3.9 19:56:16 10° ENE 20:01:56 31° SE 20:07:35 10° S
STARLINK-1229 3.4 19:59:19 10° NW 20:02:22 48° NNE 20:03:07 37° ENE
GPS 2-04 Rocket1 4.5 19:59:38 10° SSW 20:01:56 17° SSE 20:01:56 17° SSE
Cosmos 1892 4.5 19:59:50 10° NNE 20:02:13 18° ENE 20:02:13 18° ENE
H-2A R/B 2.9 19:57:44 10° S 20:02:46 50° W 20:07:42 10° NNW
STARLINK-1271 3.4 19:59:46 10° NW 20:02:49 48° NNE 20:03:34 38° ENE
ATLAS 5 CENTAUR R/B 2.4 19:59:13 10° SW 20:03:15 51° NW 20:07:46 10° NNE
STARLINK-1270 3.3 20:00:14 10° NW 20:03:17 48° NNE 20:04:00 39° ENE
STARLINK-1154 3.3 20:00:41 10° NW 20:03:44 49° NNE 20:04:26 39° ENE
STARLINK-1197 3.3 20:01:35 10° NW 20:04:38 50° NNE 20:05:18 40° ENE
STARLINK-1189 3.3 20:02:01 10° NW 20:05:04 50° NNE 20:05:43 41° ENE
STARLINK-1198 3.3 20:02:29 10° NW 20:05:32 51° NNE 20:06:10 42° ENE
STARLINK-1188 3.3 20:02:55 10° NW 20:05:58 51° NNE 20:06:35 42° ENE
STARLINK-1235 2.9 20:03:32 10° NW 20:06:40 67° NE 20:07:18 50° E
STARLINK-1187 3.1 20:03:57 10° NW 20:07:05 60° NNE 20:07:42 47° E
ATLAS 2AS CENTAUR R/B 3.2 19:59:46 10° NW 20:07:10 63° WSW 20:13:00 14° SSE
STARLINK-1199 3.2 20:04:51 10° NW 20:07:57 53° NNE 20:08:31 45° ENE
STARLINK-1191 3.2 20:05:18 10° NW 20:08:24 54° NNE 20:08:56 46° ENE
STARLINK-1210 3.2 20:05:45 10° NW 20:08:51 54° NNE 20:09:23 46° ENE
STARLINK-1221 3.1 20:06:12 10° NW 20:09:18 55° NNE 20:09:49 47° ENE
STARLINK-1219 3.1 20:06:39 10° NW 20:09:46 56° NNE 20:10:15 48° ENE
STARLINK-1222 3.1 20:07:05 10° NW 20:10:12 56° NNE 20:10:40 49° ENE
COSMOS 2455 2.8 20:04:16 10° NNW 20:10:20 81° ENE 20:13:57 26° SE
Cosmos 1140 Rocket 3.9 20:05:26 10° SSW 20:10:34 65° WNW 20:15:44 10° NNE
STARLINK-1211 3.1 20:07:34 10° NW 20:10:40 57° NNE 20:11:07 50° ENE
STARLINK-1214 3.1 20:08:00 10° NW 20:11:07 57° NNE 20:11:33 50° ENE
STARLINK-1245 3.0 20:08:28 10° NW 20:11:34 57° NNE 20:11:57 52° ENE
Ariane Rocket 4.5 20:07:04 10° SSW 20:11:42 36° W 20:16:20 10° NNW
STARLINK-1238 3.0 20:08:53 10° NW 20:12:00 58° NNE 20:12:25 52° ENE
STARLINK-1205 3.0 20:09:49 10° NW 20:12:55 59° NNE 20:13:16 54° ENE
STARLINK-1204 3.0 20:10:17 10° NW 20:13:22 60° NNE 20:13:42 55° ENE
ERBS 3.7 20:10:54 10° NNW 20:13:49 26° NNE 20:14:20 25° NE
CZ-2C R/B 4.2 20:13:40 10° SSW 20:18:10 37° W 20:22:35 10° NNW
SJ-6B 4.2 20:15:28 10° SSW 20:19:20 40° W 20:23:15 10° NNW
Cosmos 1300 2.6 20:18:02 16° S 20:20:59 85° W 20:24:50 10° N
Resurs 1-3 3.6 20:18:55 26° S 20:21:22 83° WSW 20:25:47 10° NNW
Spot 2 Rocket 4.1 20:22:15 34° E 20:23:23 39° ENE 20:28:06 10° N
STARLINK-1240 4.4 20:21:04 10° NW 20:25:00 41° NNE 20:26:01 34° ENE
Cosmos 1850 Rocket 4.2 20:24:22 37° SE 20:25:40 45° ESE 20:30:36 10° NNE
Terra 3.9 20:29:53 13° NE 20:29:53 13° NE 20:31:51 10° NNE
STARLINK-1216 4.3 20:26:01 10° NW 20:30:00 44° NNE 20:30:47 39° ENE
In-Cosmos 22 Rocket 4.3 20:24:51 10° N 20:30:39 62° ENE 20:32:45 39° SE
STPSAT 2 (USA 217) 4.5 20:26:44 10° SSW 20:31:12 88° WNW 20:35:43 10° NNE
MetOp-B 4.2 20:32:14 42° ESE 20:33:44 57° ENE 20:39:00 10° N
STARLINK-1237 4.1 20:30:58 10° NW 20:34:58 46° NNE 20:35:33 43° NE
Cosmos 1833 Rocket 4.3 20:39:01 18° ENE 20:39:01 18° ENE 20:40:51 10° NE
STARLINK-1228 4.1 20:35:01 10° WNW 20:37:09 36° W 20:37:09 36° W
STARLINK-1202 4.0 20:35:57 10° NW 20:39:59 50° NNE 20:40:21 48° NE
Cosmos 468 Rocket 4.0 20:36:41 10° NNW 20:41:47 57° ENE 20:42:31 52° E
Cosmos 192 4.3 20:37:36 10° NNW 20:42:34 71° ENE 20:43:22 59° SE
Cosmos 921 Rocket 4.4 20:40:44 10° NW 20:44:32 34° W 20:46:33 22° SSW
SL-4 R/B 3.9 20:42:45 10° NW 20:45:16 19° N 20:46:33 16° NNE
ERS-1 Rocket 3.9 20:47:01 32° ENE 20:47:01 32° ENE 20:51:14 10° N
STARLINK-1201 4.1 20:44:42 10° WNW 20:47:06 44° WNW 20:47:06 44° WNW
Cosmos 1408 4.5 20:45:21 10° NNE 20:46:55 21° NNE 20:46:55 21° NNE
STARLINK-1246 3.9 20:45:52 10° NW 20:49:54 57° NNE 20:49:54 57° NNE
RESURS DK-1 3.7 20:47:15 10° N 20:50:15 29° NE 20:50:15 29° NE
BREEZE M DEB (TANK) 4.0 20:44:25 10° WSW 20:52:08 50° NNW 20:53:25 33° NNE
STARLINK-1224 3.9 20:50:52 10° NW 20:54:43 60° N 20:54:43 60° N
COSMOS 2406 3.1 20:54:52 55° SSE 20:55:52 66° ESE 21:01:32 10° NNE
Meteor 2-12 Rocket 4.3 20:50:11 10° N 20:56:17 72° E 20:57:32 56° SE
Resurs 01 Rocket 2.3 20:55:17 38° SSW 20:56:29 50° W 21:00:48 10° NNW
STARLINK-1203 3.8 20:53:12 10° NW 20:57:04 66° N 20:57:04 66° N
Cosmos 2058 2.9 20:53:33 10° N 20:57:23 75° NW 20:57:23 75° NW
Cosmos 220 Rocket 4.1 20:54:24 10° NNW 20:58:44 67° WSW 20:58:53 66° WSW
CZ-4C R/B 4.0 20:52:46 10° NNW 20:58:59 32° NE 21:01:49 26° ENE
STARLINK-1225 4.0 20:55:51 10° NW 20:59:30 60° N 20:59:30 60° N
Cosmos 1812 Rocket 3.9 21:02:26 52° WSW 21:03:08 60° W 21:07:26 10° N
Cosmos 2218 Rocket 4.1 20:58:31 10° N 21:04:44 75° W 21:07:06 40° S
STARLINK-1230 4.1 21:00:48 10° NW 21:04:16 58° NNW 21:04:16 58° NNW
CZ-2C R/B 3.7 21:01:03 10° N 21:05:55 42° WNW 21:10:48 10° SW
Cosmos 2151 4.2 21:04:59 10° N 21:07:35 33° NNE 21:07:35 33° NNE
STARLINK-1243 4.3 21:05:46 10° NW 21:09:03 54° NW 21:09:03 54° NW
USA 245 4.4 21:11:51 61° S 21:12:58 83° WSW 21:19:25 10° NNW
Cosmos 1697 Rocket 3.2 21:09:12 10° NNW 21:14:29 45° NE 21:14:29 45° NE
Cosmos 2369 4.2 21:09:20 10° NNW 21:14:33 44° NE 21:14:33 44° NE
STARLINK-1236 4.5 21:10:45 10° NW 21:13:50 49° NW 21:13:50 49° NW
Cosmos 1741 Rocket 4.5 21:21:14 31° SW 21:23:38 59° WNW 21:28:55 10° NNE
Landsat 7 4.1 21:25:10 65° NW 21:25:10 65° NW 21:29:20 10° NNW
Cosmos 1455 4.4 21:31:25 22° N 21:31:25 22° N 21:32:56 10° N
SPOT 1/Viking Rocket 3.6 21:30:44 74° NW 21:30:44 74° NW 21:35:35 10° NNW
Cosmos 1763 Rocket 3.8 21:26:48 10° NNW 21:31:31 60° W 21:31:31 60° W
Cosmos 1656 3.7 21:27:24 10° NNW 21:32:50 74° W 21:32:50 74° W
Cosmos 540 Rocket 4.0 21:30:18 10° NNW 21:34:20 52° N 21:34:20 52° N
SL-16 R/B 4.3 21:32:56 10° NNE 21:35:56 14° NE 21:36:11 14° NE
Cosmos 2208 Rocket 4.4 21:31:48 10° NNW 21:36:03 60° N 21:36:03 60° N
Nadezhda 3 Rocket 3.9 21:41:26 84° NNE 21:41:26 84° NNE 21:47:31 10° N
Cosmos 2322 Rocket 4.4 21:40:08 10° NNE 21:42:51 13° NE 21:43:04 13° NE
Cosmos 1980 Rocket 3.1 21:39:29 10° NNW 21:43:48 39° NNE 21:43:48 39° NNE
USA 234 3.3 21:38:46 10° NE 21:45:18 78° NW 21:51:51 10° WSW
Meteor 2-3 Rocket 4.4 21:51:08 10° N 21:55:21 48° NNE 21:55:21 48° NNE
ATLAS CENTAUR R/B 3.9 21:57:21 10° NNW 21:58:21 17° NNW 21:58:21 17° NNW
Terra 3.3 22:08:45 34° NNW 22:08:45 34° NNW 22:11:28 10° NNW
Mayak 1.6 22:04:43 10° NNE 22:04:58 11° NNE 22:04:58 11° NNE
Cosmos 1821 Rocket 4.4 22:05:26 10° NNW 22:11:20 59° WNW 22:11:20 59° WNW
Cosmos 1934 Rocket 4.4 22:06:31 10° N 22:11:27 58° N 22:11:27 58° N
Cosmos 2082 Rocket 3.5 22:15:56 33° NNE 22:15:56 33° NNE 22:18:58 10° NNE
Cosmos 1833 Rocket 3.7 22:20:38 44° NW 22:20:38 44° NW 22:25:19 10° NNE
Cosmos 2344 4.4 22:26:35 10° NW 22:36:24 78° NE 22:38:34 65° ESE
CZ-4C R/B 3.2 22:40:53 10° NW 22:47:00 64° WNW 22:47:00 64° WNW
SL-16 R/B 3.9 23:15:21 10° NNW 23:18:02 29° NNW 23:18:02 29° NNW
Cosmos 2360 Rocket 4.1 23:16:27 10° N 23:19:17 25° NNE 23:19:17 25° NNE
Cosmos 2322 Rocket 4.0 23:22:19 10° NNW 23:24:52 28° NNW 23:24:52 28° NNW
Cosmos 1980 Rocket 4.4 23:23:53 10° NW 23:25:34 18° WNW 23:25:34 18° WNW
Cosmos 2333 Rocket 4.3 23:39:19 10° N 23:42:25 21° NNE 23:42:25 21° NNE
